EST,Max TemperatureF,Mean TemperatureF,Min TemperatureF,Max Dew PointF,MeanDew PointF,Min DewpointF,Max Humidity, Mean Humidity, Min Humidity, Max Sea Level PressureIn, Mean Sea Level PressureIn, Min Sea Level PressureIn, Max VisibilityMiles, Mean VisibilityMiles, Min VisibilityMiles, Max Wind SpeedMPH, Mean Wind SpeedMPH, Max Gust SpeedMPH,PrecipitationIn, CloudCover, Events, WindDirDegrees
2012-11-1,50,47,44,39,36,34,76,67,54,29.52,29.49,29.46,10,10,10,10,6,,0.00,6,,210
2012-11-2,48,44,41,37,34,30,81,66,50,29.58,29.52,29.49,10,10,10,12,6,17,0.00,5,,252
2012-11-3,46,44,41,32,30,28,70,61,50,29.76,29.68,29.58,10,10,10,15,8,25,0.00,7,,272
2012-11-4,44,40,35,30,28,25,70,62,53,29.92,29.84,29.75,10,10,10,17,9,24,0.00,4,,271
2012-11-5,37,32,28,21,17,12,64,50,38,30.08,29.98,29.91,10,10,10,15,7,22,0.00,6,,295
2012-11-6,41,31,21,18,14,10,74,54,29,30.20,30.15,30.08,10,10,10,10,4,,0.00,0,,292
2012-11-7,37,30,24,21,15,10,74,49,33,30.20,30.04,29.87,10,10,10,21,10,31,0.00,4,,53
2012-11-8,41,37,33,34,29,23,81,73,65,29.86,29.76,29.70,10,9,3,18,11,28,0.01,8,,350
2012-11-9,48,42,35,28,25,19,70,54,32,30.04,29.90,29.75,10,10,10,21,10,26,0.00,2,,279
2012-11-10,50,40,30,28,24,18,75,54,32,30.43,30.25,30.03,10,10,10,15,5,23,0.00,1,,276
2012-11-11,55,44,33,39,34,27,93,73,54,30.45,30.41,30.36,10,9,4,9,1,,0.00,4,,157
2012-11-12,66,50,33,54,41,28,93,72,35,30.41,30.32,30.16,10,8,1,18,3,24,0.00,1,,181
2012-11-13,62,45,28,55,38,21,87,71,52,30.40,30.22,30.03,10,10,6,17,11,37,0.07,5,,250
2012-11-14,44,34,24,27,22,19,86,65,37,30.53,30.48,30.40,10,10,10,12,1,18,0.00,0,,75
2012-11-15,42,34,26,27,24,19,86,66,49,30.47,30.38,30.28,10,10,10,13,5,18,0.00,0,,61
2012-11-16,42,34,26,27,24,21,86,73,49,30.40,30.30,30.26,10,10,10,6,1,,0.00,0,,229
2012-11-17,46,35,24,28,21,18,86,64,34,30.64,30.54,30.41,10,10,8,8,1,,0.00,0,,232
2012-11-18,42,32,23,27,22,19,86,70,42,30.71,30.65,30.61,10,10,10,7,1,,0.00,1,,54
2012-11-19,46,34,21,28,23,18,93,74,46,30.61,30.44,30.25,10,8,0,6,0,,0.00,2,,44
2012-11-20,46,34,23,28,24,19,93,72,43,30.24,30.17,30.12,10,8,0,6,1,,0.00,2,,43
2012-11-21,33,,33,28,28,28,81,81,81,30.15,30.15,30.15,10,10,10,0,0,,0.00,3,,-1
2012-11-22,,,,,,,,,,,,,,,,,,,,,,
2012-11-23,,,,,,,,,,,,,,,,,,,,,,
2012-11-24,,,,,,,,,,,,,,,,,,,,,,
2012-11-25,,,,,,,,,,,,,,,,,,,,,,
2012-11-26,,,,,,,,,,,,,,,,,,,,,,
2012-11-27,,,,,,,,,,,,,,,,,,,,,,
2012-11-28,35,30,24,21,18,16,74,59,48,30.17,30.09,30.06,10,10,10,10,4,,0.00,4,,151
2012-11-29,39,32,26,28,19,12,75,58,41,30.19,30.10,30.01,10,10,5,26,9,36,0.00,3,,250
2012-11-30,30,24,19,18,5,-2,60,45,27,30.53,30.41,30.19,10,10,8,13,6,24,0.00,3,,287